Location: Unspecified
(0.0000°N, 0.0000°E)
Time: 01:46:29
(UTC+00:00)

Explorer 7 - Pass Details

Date: 27 November 2019
Orbit: 485 x 680 km, 50.3° (Epoch: 11 December)

Event Time Altitude Azimuth Distance (km) Brightness Sun altitude
Rises 18:35:48 0° 241° (WSW) 2,973 12.7 -11.2°
Reaches altitude 10° 18:38:32 10° 256° (WSW) 2,081 11.3 -11.9°
Maximum altitude 18:42:18 23° 308° (NW) 1,428 9.3 -12.7°
Drops below altitude 10° 18:46:08 10° 359° (N) 2,103 9.6 -13.6°
Enters shadow 18:48:07 - 11° (N) 2,739 10.1 -14.1°
